Juneau, AK

5:46 PM AKDT on May 24, 2017 (GMT -0800)
Juneau International

Weather History for PAJN - June, 2012

Change the Weather History Date:

Sunday, June 24, 2012

  Actual Average Record
Temperature  
Mean Temperature 65 °F 56 °F  
Max Temperature 79 °F 63 °F 84 °F (2004)
Min Temperature 50 °F 48 °F 40 °F (1958)
Degree Days  
Heating Degree Days 0 10  
Month to date heating degree days 306 259  
Since 1 June heating degree days 306 259  
Since 1 July heating degree days 8490 8295  
Cooling Degree Days 0 0  
Month to date cooling degree days 1 0  
Year to date cooling degree days 1 0  
Since 1 June cooling degree days 1 0  
Growing Degree Days 14 (Base 50)    
Moisture  
Dew Point 50 °F    
Average Humidity 67    
Maximum Humidity 96    
Minimum Humidity 38    
Precipitation  
Precipitation T in 0.11 in 0.86 in (1985)
Month to date precipitation 3.31 2.54  
Year to date precipitation 23.07 22.14  
Sea Level Pressure  
Sea Level Pressure 29.78 in    
Wind  
Wind Speed 10 mph (SSE)    
Max Wind Speed 28 mph    
Max Gust Speed 37 mph    
Visibility 10 miles    
Events      
T = Trace of Precipitation, MM = Missing Value Source: NWS Daily Summary

Daily Weather History Graph

Daily Weather History Graph

Search for Another Location

Airport or City:

Trip Planner

Search our weather history database for the weather conditions in past years. The results will help you decide how hot, cold, wet, or windy it might be!

Date:

Astronomy

Jun. 24, 2012 Rise Set
Actual Time 3:52 AM AKDT 10:08 PM AKDT
Civil Twilight 2:33 AM AKDT 11:27 PM AKDT
Nautical Twilight Sun does not set Sun does not set
Astronomical Twilight Sun does not set Sun does not set
Moon 10:27 AM AKDT (6/24) 11:41 PM AKDT (6/24)
Length of Visible Light 20h 53m
Length of Day
18h 16m
Waxing Crescent, 26% of the Moon is Illuminated
Jun 24
Waxing Crescent
Jun 26
First Quarter
Jul 3
Full
Jul 10
Last Quarter
Jul 18
New

Hourly Weather History & Observations

Time (AKDT) Temp. Dew Point Humidity Pressure Visibility Wind Dir Wind Speed Gust Speed Precip Events Conditions
12:53 AM 55.9 °F 51.1 °F 84% 29.79 in 10.0 mi Calm Calm - N/A   Clear
1:53 AM 54.0 °F 51.1 °F 90% 29.79 in 10.0 mi Calm Calm - N/A   Partly Cloudy
2:53 AM 55.0 °F 50.0 °F 83% 29.79 in 10.0 mi Calm Calm - N/A   Partly Cloudy
3:53 AM 53.1 °F 48.9 °F 86% 29.78 in 10.0 mi Calm Calm - N/A   Partly Cloudy
4:53 AM 51.1 °F 48.0 °F 89% 29.78 in 10.0 mi Calm Calm - N/A   Partly Cloudy
5:53 AM 52.0 °F 50.0 °F 93% 29.78 in 10.0 mi East 4.6 mph - N/A   Clear
6:53 AM 59.0 °F 52.0 °F 78% 29.78 in 10.0 mi Calm Calm - N/A   Clear
7:53 AM 63.0 °F 48.9 °F 60% 29.78 in 10.0 mi Calm Calm - N/A   Clear
8:53 AM 64.9 °F 50.0 °F 58% 29.77 in 10.0 mi WSW 5.8 mph - N/A   Clear
9:53 AM 66.9 °F 48.9 °F 52% 29.76 in 10.0 mi WSW 6.9 mph - N/A   Partly Cloudy
10:53 AM 70.0 °F 48.9 °F 47% 29.74 in 10.0 mi WSW 8.1 mph - N/A   Partly Cloudy
11:53 AM 73.0 °F 48.0 °F 41% 29.74 in 10.0 mi SW 4.6 mph - N/A   Partly Cloudy
12:53 PM 75.0 °F 48.0 °F 38% 29.73 in 10.0 mi WSW 3.5 mph - N/A   Scattered Clouds
1:53 PM 77.0 °F 50.0 °F 39% 29.72 in 10.0 mi SW 8.1 mph - N/A   Scattered Clouds
2:53 PM 77.0 °F 50.0 °F 39% 29.71 in 10.0 mi Calm Calm - N/A   Scattered Clouds
3:53 PM 75.9 °F 48.0 °F 37% 29.72 in 10.0 mi ESE 20.7 mph 28.8 mph N/A   Mostly Cloudy
4:53 PM 72.0 °F 50.0 °F 46% 29.73 in 10.0 mi ESE 21.9 mph 29.9 mph N/A   Overcast
5:53 PM 68.0 °F 52.0 °F 56% 29.75 in 10.0 mi ESE 24.2 mph 35.7 mph N/A   Overcast
6:53 PM 66.0 °F 52.0 °F 60% 29.78 in 10.0 mi ESE 25.3 mph 33.4 mph N/A   Overcast
7:53 PM 64.0 °F 51.1 °F 63% 29.81 in 10.0 mi ESE 21.9 mph 27.6 mph N/A   Overcast
8:53 PM 60.1 °F 51.1 °F 72% 29.84 in 10.0 mi SE 19.6 mph 35.7 mph N/A   Overcast
9:53 PM 57.9 °F 50.0 °F 75% 29.87 in 10.0 mi SE 16.1 mph 27.6 mph N/A   Overcast
10:26 PM 57.2 °F 48.2 °F 72% 29.88 in 10.0 mi SE 18.4 mph 27.6 mph N/A   Overcast
10:53 PM 57.0 °F 48.9 °F 74% 29.88 in 10.0 mi ESE 18.4 mph 25.3 mph N/A   Overcast
11:53 PM 55.9 °F 48.9 °F 77% 29.89 in 10.0 mi ESE 16.1 mph 23.0 mph N/A   Overcast